Meteor 1-16 Rocket - Orbit

View from above orbital plane
View from above orbital plane
View from above satellite
View from above satellite

Ground track
Ground track

The orbit data is extracted from the following two-line orbital elements,

1 07210U 74011B   13138.17405766  .00000071  00000-0  30886-4 0  9914
2 07210 081.2393 067.0702 0080030 297.7487 171.2762 14.12810955 19423
Epoch (UTC): 18 May 2013 04:10:38
Eccentricity: 0.0080030
inclination: 81.2393°
perigee height: 792 km
apogee height: 907 km
right ascension of ascending node: 67.0702°
argument of perigee: 297.7487°
revolutions per day: 14.12810955
mean anomaly at epoch: 171.2762°
orbit number at epoch: 1942

The dashed part of the orbit path shows where the satellite is in the earth's shadow,  

Developed and maintained by Chris Peat, Heavens-Above GmbH. Please read the updated FAQ before sending e-mail. Imprint. DLR